Theta_e
308 308 308 308 309 309 309 309 309 309 309 310 310 310 310 309 310 310 309 310 312 312 313 315 316 316 316 321 322 323 322 317 316 321 319 317 319 320 321 321 320 321 322 321 321 321 321
308 308 308 308 308 309 309 309 309 309 309 309 310 310 310 310 309 310 310 310 311 313 314 316 316 316 318 322 322 322 319 317 318 320 317 319 321 321 322 322 322 322 324 330 329 324 330
309 309 309 309 309 309 309 308 308 308 308 309 309 309 310 310 310 309 310 310 311 313 314 316 316 316 319 320 320 320 316 317 317 318 318 319 321 321 322 323 322 330 334 337 335 332 336
309 309 309 308 308 308 309 308 308 308 308 308 308 308 309 309 310 309 310 310 311 314 313 315 316 316 320 317 318 321 318 317 317 317 319 320 320 322 323 322 323 326 332 333 339 338 337
306 306 306 306 306 306 306 306 307 307 307 307 307 307 308 309 309 309 310 310 311 314 313 314 315 317 320 318 320 322 320 320 320 318 319 319 320 322 322 324 324 325 325 329 339 338 339
302 302 302 302 303 303 303 304 304 305 305 306 306 307 307 308 308 309 310 310 311 313 311 312 314 319 319 322 323 324 322 321 322 320 320 320 321 323 323 324 324 325 325 326 332 338 340
302 302 302 302 302 302 302 302 303 304 304 304 305 306 307 308 308 308 310 312 315 321 316 320 322 319 321 321 321 322 323 323 322 321 322 321 323 323 323 323 325 325 325 326 334 339 339
302 302 302 302 302 302 303 303 303 303 304 304 305 306 307 307 308 308 311 314 315 316 319 320 321 321 321 321 322 322 322 323 322 322 322 323 322 323 323 323 324 325 326 334 337 337 339
301 301 301 301 301 301 302 302 303 303 304 304 305 305 307 308 308 309 309 311 313 315 320 320 319 320 323 322 322 323 321 322 322 322 322 322 323 323 323 323 324 326 328 335 337 338 337
300 300 300 301 301 301 302 302 302 303 303 304 305 305 306 308 309 307 311 315 313 315 323 323 319 319 319 321 322 322 321 321 321 322 322 323 323 323 324 324 325 325 327 333 339 338 337
299 299 299 299 300 300 301 301 301 303 303 303 304 305 306 307 307 308 310 315 311 316 323 321 322 320 320 322 323 323 321 321 321 322 323 324 324 324 325 325 325 330 329 335 337 335 336
298 298 298 298 298 298 299 300 301 302 303 304 304 305 307 308 308 308 308 310 315 323 322 323 323 322 323 322 322 323 321 321 321 323 323 325 324 325 325 324 325 332 333 335 332 328 329
297 297 297 297 298 298 298 299 299 301 302 303 305 306 307 308 309 308 312 316 323 322 321 324 326 323 323 323 323 323 323 323 323 324 325 326 325 323 323 327 329 326 328 328 327 327 327
298 298 298 298 298 298 299 299 299 300 301 303 305 307 308 308 307 307 312 322 323 321 320 324 325 324 323 324 323 322 323 324 324 324 325 327 326 324 324 326 326 326 327 327 327 327 327
297 298 298 298 298 298 299 299 299 300 300 302 305 307 309 317 316 307 312 322 322 322 321 322 324 326 325 324 323 324 323 324 324 324 326 327 326 324 324 324 326 326 326 327 327 326 326
297 297 297 298 298 298 298 298 299 300 300 301 305 308 318 320 320 310 316 318 321 321 323 323 324 326 327 325 323 324 324 324 324 324 324 328 328 325 323 324 324 326 325 327 328 327 327
296 296 296 296 297 297 297 297 299 300 301 301 306 312 317 316 315 315 316 316 318 320 321 322 326 324 325 326 324 323 324 323 323 323 324 327 329 327 326 326 326 325 326 327 328 327 327
295 295 295 295 296 296 296 296 298 299 301 301 310 315 314 316 321 319 317 317 318 320 321 321 322 323 324 324 325 324 324 324 323 323 324 326 330 329 327 327 326 327 327 328 328 331 328
295 295 295 295 295 295 296 296 297 298 299 300 311 316 318 318 324 323 321 319 318 319 321 321 322 323 323 327 328 324 324 325 324 325 325 329 330 331 330 328 327 327 327 328 330 329 328
295 295 295 295 295 295 295 296 296 297 299 301 313 318 320 320 319 322 323 322 322 321 320 320 322 322 323 325 329 330 325 325 325 325 324 328 329 330 330 328 328 329 328 327 329 332 328
295 295 295 295 295 295 295 295 296 296 298 300 309 317 314 320 322 320 320 321 323 323 322 322 323 322 322 324 329 328 329 327 326 324 325 331 330 329 327 327 327 328 327 327 328 328 328
295 295 295 295 295 295 295 295 295 295 297 304 306 307 307 309 314 319 318 323 322 322 322 324 325 325 327 328 329 328 329 329 329 327 328 331 330 330 328 327 327 327 327 327 326 325 326
295 295 295 295 295 295 295 295 295 295 296 302 302 304 305 308 312 315 320 318 320 318 321 321 322 324 328 327 323 324 327 328 329 329 330 331 332 332 330 328 328 329 328 327 326 326 326
295 295 295 295 295 295 295 295 295 295 295 300 301 301 306 308 308 310 310 311 315 316 317 317 317 324 325 323 323 323 325 326 327 328 330 333 333 332 332 329 331 329 326 325 325 324 324
295 295 295 295 295 295 295 295 295 295 294 300 301 301 303 306 306 306 309 310 311 312 314 316 317 322 320 325 327 329 328 327 327 326 328 331 330 337 334 331 330 326 325 325 325 324 324
295 296 296 296 296 295 295 295 296 295 294 299 299 299 301 304 307 307 306 306 311 314 315 316 317 315 323 328 328 331 329 329 330 329 327 329 332 334 332 336 334 329 326 323 323 325 324
294 294 295 296 296 296 296 297 295 296 296 297 299 298 300 302 303 306 309 308 307 310 313 313 314 317 323 328 331 330 329 328 330 331 330 330 331 333 331 333 329 326 322 322 326 327 324
294 294 294 294 296 296 297 296 296 295 296 297 297 298 298 299 299 299 301 302 304 305 308 308 310 319 322 330 328 329 329 329 330 329 331 331 332 332 331 331 334 326 323 325 328 325 324
294 294 296 296 295 295 296 296 296 295 296 297 299 298 296 297 298 298 297 299 301 301 302 303 307 309 315 324 326 329 328 328 329 333 327 334 331 332 332 331 331 325 326 325 325 324 325
Wind_Speed
17 17 18 18 18 18 19 19 19 19 19 19 19 20 20 19 18 16 15 14 12 11 8 6 6 7 7 5 3 3 4 8 13 10 8 10 13 10 10 9 11 11 7 8 6 6 10
17 18 18 19 19 19 20 19 20 20 20 21 21 20 20 20 19 18 16 14 12 11 7 6 6 7 6 9 4 2 5 9 10 9 8 11 7 6 6 8 10 6 5 6 5 11 13
17 18 18 19 20 20 20 21 21 21 21 21 22 22 21 21 20 19 17 15 12 10 7 7 7 8 9 8 4 4 8 9 9 8 10 6 4 8 8 8 6 8 9 9 9 13 13
17 18 18 19 20 20 21 22 22 23 23 23 23 22 22 22 21 20 17 15 11 9 8 8 7 8 6 7 8 7 8 7 9 7 5 3 4 4 7 5 7 10 9 12 10 13 12
18 19 19 19 19 20 21 22 23 23 24 24 24 23 23 22 22 21 18 14 10 8 8 9 7 5 5 6 7 9 10 6 7 6 5 6 3 6 8 12 11 9 12 10 10 5 13
19 20 20 20 21 21 21 22 23 23 24 25 25 24 23 22 22 20 18 12 7 6 7 8 10 6 8 9 7 8 12 10 7 7 7 7 8 9 11 11 12 13 7 8 12 9 10
20 21 21 21 22 22 22 23 23 24 25 25 26 25 24 23 22 21 13 6 4 3 10 11 2 5 7 5 4 9 12 12 9 11 12 12 10 12 14 14 5 2 7 8 7 2 10
20 21 21 22 22 23 24 24 24 24 25 26 26 26 24 22 21 17 3 4 4 3 9 15 18 16 11 4 6 12 14 15 11 12 8 8 13 9 4 6 9 6 8 10 6 4 9
20 20 20 22 23 23 24 25 26 26 25 25 26 26 25 22 20 8 10 7 6 6 8 9 15 16 16 14 13 16 20 18 13 12 11 14 7 5 12 11 12 10 12 12 8 10 2
20 21 22 23 23 24 25 26 27 27 27 26 25 26 25 22 10 11 8 5 3 7 5 9 8 8 14 15 12 14 21 15 9 12 12 9 4 8 11 10 15 11 6 9 12 14 5
20 21 22 23 24 25 25 26 27 28 28 27 26 24 24 21 21 10 7 9 7 2 5 6 7 5 12 24 14 15 19 14 13 11 7 7 11 12 12 12 13 10 10 11 14 6 9
20 21 22 23 24 26 27 27 28 28 28 28 27 24 24 21 18 11 12 9 3 6 6 5 7 11 15 22 10 16 15 12 9 8 10 4 1 8 3 5 5 13 12 10 7 5 10
20 20 21 23 25 26 27 29 30 29 29 29 26 24 21 18 6 5 3 6 6 8 3 7 7 10 17 15 13 16 16 17 12 12 12 8 10 6 14 12 14 11 13 8 8 7 1
20 22 23 24 26 27 29 30 31 31 31 30 25 23 19 14 11 11 6 8 10 1 10 2 2 7 15 17 16 14 17 17 17 12 11 12 11 13 8 9 11 14 9 7 4 4 3
22 23 24 25 26 27 28 30 32 33 33 31 25 21 9 9 5 12 11 13 7 10 2 5 5 10 14 16 15 17 17 18 17 14 8 9 9 7 3 4 4 10 9 5 3 1 8
22 24 25 26 27 27 29 31 33 34 33 31 25 12 4 10 5 12 10 17 14 3 4 4 9 3 13 17 15 19 18 17 16 17 14 7 8 9 6 8 5 4 10 5 7 4 6
23 25 26 27 27 28 28 29 31 33 33 29 15 6 7 7 10 9 10 17 17 8 6 4 3 4 3 8 20 16 16 8 19 17 12 5 8 9 8 10 12 6 8 1 4 4 5
22 23 24 25 27 28 28 28 29 32 32 29 9 3 5 2 7 5 10 12 5 14 12 8 5 6 8 8 12 20 20 18 13 16 16 11 7 12 15 4 3 5 5 8 6 6 3
21 22 23 24 26 27 28 27 26 27 29 29 14 5 5 1 5 6 5 10 12 13 14 12 11 6 6 7 5 16 18 9 11 15 15 10 8 8 6 5 5 9 8 5 2 2 8
19 21 22 23 24 26 27 27 25 23 23 20 8 4 1 1 2 6 7 11 8 6 12 16 16 16 16 14 10 6 14 6 11 15 3 14 11 14 11 13 14 14 12 12 10 6 9
19 20 20 21 22 24 25 26 25 22 20 12 6 4 4 4 1 10 6 6 8 5 5 8 10 15 16 15 15 13 10 7 8 8 9 8 13 15 15 6 10 13 14 14 13 12 10
17 18 19 20 20 22 23 24 25 22 18 7 7 7 9 10 9 9 3 3 8 8 5 5 7 9 9 14 12 8 11 9 8 11 11 7 9 11 10 9 10 12 11 12 12 11 12
16 16 17 17 19 19 21 22 23 22 20 8 8 5 5 7 5 5 1 5 5 10 4 5 8 12 9 6 13 14 9 2 2 6 11 10 9 12 11 10 9 9 11 12 10 8 9
15 16 15 16 16 18 19 20 20 19 16 10 8 7 5 6 5 5 10 12 12 10 12 13 17 10 6 17 14 14 7 2 6 5 4 10 11 6 5 8 13 4 7 1 6 9 6
14 14 14 15 15 16 16 17 17 16 14 10 6 5 4 7 10 10 8 11 14 13 14 12 11 7 15 12 6 5 9 11 9 2 4 4 8 5 4 3 11 5 6 7 8 7 6
15 15 15 15 15 15 15 15 14 14 13 8 8 5 3 9 2 7 15 13 9 9 11 6 7 11 5 4 6 12 12 14 14 9 2 5 10 7 9 11 16 7 10 7 3 8 6
16 15 15 15 15 15 14 12 12 13 12 8 7 6 5 10 10 6 5 8 8 7 6 10 10 5 4 5 7 6 10 4 15 18 10 13 13 14 10 8 5 8 12 10 7 2 8
16 15 14 14 14 12 14 12 11 11 10 7 7 6 4 9 22 20 16 16 14 12 7 12 10 5 6 5 3 2 4 6 6 10 18 12 12 9 9 12 6 16 12 8 7 9 11
17 16 15 15 14 12 12 12 10 9 7 8 6 7 11 11 16 22 26 24 21 18 16 6 10 8 4 4 3 4 2 3 3 6 2 6 4 5 8 5 9 22 6 10 9 12 11
Wind_Direction
11 9 6 3 2 1 1 359 355 353 351 349 348 347 344 342 334 329 325 322 324 324 308 289 306 323 337 252 215 213 198 175 172 172 193 189 188 199 200 188 184 234 163 188 182 188 200
4 3 359 357 355 355 354 351 348 347 346 345 344 344 343 339 336 329 323 315 313 312 293 276 296 315 317 246 201 175 173 175 184 187 193 179 195 214 165 179 217 159 195 162 202 176 167
359 357 354 352 351 350 348 345 344 343 342 341 341 341 341 338 334 331 323 314 307 301 279 262 280 302 283 247 206 142 131 165 189 183 173 186 183 205 167 159 159 154 149 144 143 156 159
354 353 352 351 350 349 346 343 342 341 340 339 339 339 339 335 332 332 325 314 304 289 265 252 270 295 263 230 204 165 153 152 156 175 152 189 197 215 226 123 176 195 204 177 144 164 166
359 357 354 352 350 349 347 344 341 341 339 338 337 336 336 335 329 330 326 317 302 278 250 244 267 268 244 212 205 195 180 174 164 183 192 170 204 221 191 206 188 198 195 202 147 188 163
0 358 356 354 352 350 348 346 343 340 339 336 335 334 333 333 328 328 325 314 290 268 235 240 242 257 229 188 176 185 192 176 156 154 166 202 212 214 218 214 205 184 209 185 174 172 198
358 356 355 354 353 351 349 347 344 342 339 337 334 333 333 332 327 328 326 318 288 241 221 225 217 236 159 183 180 189 189 183 192 203 211 205 228 215 202 218 353 130 208 180 89 144 210
354 354 351 352 350 349 347 346 345 343 340 337 334 331 331 331 327 328 324 293 287 306 288 248 240 239 231 209 208 186 178 192 197 210 196 205 229 232 230 203 212 216 196 124 120 173 228
354 353 351 350 349 347 345 344 343 341 341 339 334 332 330 331 327 323 322 275 237 319 259 253 227 230 219 209 218 190 187 203 205 216 208 242 93 173 186 182 202 215 208 165 133 140 199
353 353 351 349 348 346 344 343 342 339 339 338 334 332 328 332 340 324 321 203 251 309 267 168 201 220 196 191 214 200 193 197 203 224 213 235 188 199 200 211 209 181 210 170 155 188 196
353 351 352 351 349 347 344 343 340 337 337 335 334 331 323 325 312 313 263 214 313 218 273 116 150 170 180 188 143 186 191 207 217 194 202 153 187 203 210 194 208 100 154 162 173 208 167
358 357 356 354 354 352 347 345 341 338 336 333 331 328 320 318 311 305 255 231 239 232 243 164 151 177 173 202 197 152 190 213 225 212 222 266 175 219 145 135 179 131 138 159 204 224 236
2 0 360 358 356 354 350 348 345 341 337 331 330 323 317 304 277 278 188 173 214 241 100 170 187 188 191 184 178 181 185 196 192 192 199 186 173 144 160 120 150 178 179 201 213 201 265
0 358 358 357 356 353 351 349 347 345 342 333 332 324 319 293 267 220 200 214 234 229 225 75 228 197 203 186 191 187 192 196 216 225 194 190 171 169 182 209 176 198 203 280 236 235 86
356 354 352 351 352 351 350 348 345 345 346 339 335 333 327 308 271 197 201 217 229 243 298 240 238 219 201 203 205 196 204 211 197 214 222 207 149 136 180 162 194 171 223 19 293 176 262
351 348 346 346 346 347 348 347 345 344 347 346 340 341 331 313 226 177 211 235 241 235 270 238 251 244 214 200 202 197 196 208 209 206 234 205 162 191 142 153 72 253 131 188 205 262 268
347 345 344 343 343 344 347 348 345 343 347 350 352 314 346 44 141 201 227 228 237 229 257 262 233 283 285 242 202 204 201 182 205 193 205 200 250 164 175 207 186 164 183 238 340 304 289
345 347 346 345 344 345 347 349 349 346 346 356 2 287 325 190 232 227 239 228 320 266 219 256 273 274 279 278 251 219 214 212 190 181 197 199 238 180 201 91 332 287 241 188 246 176 244
344 346 346 346 346 347 349 352 352 352 352 349 332 296 320 24 261 234 229 256 243 256 249 243 242 242 298 291 253 233 217 131 180 187 193 168 202 170 184 175 183 219 194 217 226 278 265
341 342 343 344 347 346 348 351 355 353 353 351 333 304 74 273 8 319 337 265 261 214 259 265 265 264 265 264 256 256 228 168 202 209 153 195 211 225 213 218 200 202 201 203 214 239 270
339 342 344 344 345 347 349 351 355 358 359 13 356 30 350 316 129 331 302 297 291 272 241 258 259 240 250 249 249 225 210 177 183 179 187 198 212 225 243 260 201 212 199 198 216 237 253
337 338 341 344 346 347 349 351 354 2 7 26 358 351 330 289 295 288 185 243 298 331 295 267 281 345 272 245 265 260 204 204 192 182 188 199 216 200 192 181 194 209 202 205 222 248 264
330 333 339 342 344 348 350 351 355 1 15 31 3 341 314 295 302 281 52 345 317 331 269 305 341 317 283 350 312 298 307 66 340 198 189 184 168 188 189 182 178 219 217 220 232 236 259
324 329 332 337 342 344 349 351 355 3 14 10 352 1 306 295 303 334 314 305 296 301 289 296 308 298 5 320 286 247 205 249 140 117 206 173 168 174 140 186 219 125 130 320 258 272 248
316 322 325 331 336 340 344 347 350 356 2 13 332 12 330 294 314 293 325 311 306 289 270 284 300 313 308 307 254 179 209 225 233 219 196 243 189 154 172 226 311 228 197 203 221 269 214
312 311 316 321 327 334 335 339 343 345 352 18 309 351 325 304 56 328 309 298 303 318 285 249 305 320 292 261 257 226 194 208 193 196 152 225 236 180 201 206 215 228 135 152 143 260 197
311 307 307 310 317 325 332 330 336 336 342 3 300 314 307 281 286 324 309 330 314 309 289 289 337 314 266 238 234 240 243 280 184 192 185 184 189 198 197 206 217 128 147 152 220 116 143
307 306 306 307 306 311 317 324 325 325 337 358 305 309 321 279 285 276 282 274 277 267 277 343 309 197 273 248 197 274 265 253 262 204 183 182 184 202 198 216 216 146 153 214 110 122 150
300 301 303 303 302 301 304 316 310 313 325 332 313 290 304 270 267 283 276 260 254 258 287 271 305 312 335 291 252 152 281 283 350 202 186 231 239 173 207 200 121 172 203 180 157 161 167